Total_Precipitation_Accumulation
0.80 0.81 0.76 0.80 0.72 0.71 0.80 0.86 0.85 0.87 0.79 0.67 0.62 0.62 0.70 0.65 0.61 0.66 0.83 1.00 1.32 1.57 1.65 1.48 1.30 1.19 1.16 1.15 1.34 1.58 1.90 2.07 1.93 1.84 1.64 1.54 1.75 1.84 1.43 1.31 1.30 1.25 1.29
0.84 0.88 0.85 0.84 0.82 0.76 0.79 0.95 0.89 0.93 0.91 0.85 0.69 0.67 0.70 0.67 0.64 0.67 0.77 1.01 1.17 1.31 1.58 1.75 1.58 1.40 1.25 1.21 1.30 1.53 1.90 2.00 1.75 1.70 1.67 1.60 1.78 1.84 1.50 1.35 1.28 1.17 1.28
0.81 0.85 0.87 0.84 0.83 0.84 0.84 0.89 0.92 0.98 0.90 0.85 0.79 0.74 0.72 0.67 0.60 0.67 0.69 0.78 0.79 0.91 1.17 1.44 1.62 1.54 1.44 1.40 1.42 1.61 1.88 1.86 1.65 1.63 1.66 1.62 1.62 1.69 1.63 1.44 1.27 1.17 1.21
0.88 0.88 0.92 0.93 0.97 1.00 0.98 0.98 1.01 1.04 1.00 0.99 0.97 0.93 0.76 0.76 0.68 0.68 0.68 0.68 0.73 0.70 0.82 0.96 1.18 1.36 1.52 1.62 1.80 2.00 1.91 1.75 1.55 1.50 1.59 1.57 1.55 1.63 1.64 1.54 1.30 1.20 1.16
0.94 1.05 1.08 1.13 1.10 1.12 1.14 1.10 1.12 1.06 1.05 1.07 1.00 0.98 0.86 0.84 0.80 0.69 0.75 0.77 0.76 0.72 0.74 0.67 0.73 0.84 1.09 1.44 1.93 2.22 1.94 1.79 1.62 1.47 1.45 1.47 1.57 1.68 1.62 1.43 1.25 1.15 1.14
1.24 1.39 1.47 1.41 1.39 1.39 1.38 1.34 1.42 1.31 1.13 1.13 1.06 1.01 0.89 0.80 0.87 0.84 0.83 0.82 0.86 0.84 0.78 0.67 0.62 0.53 0.64 1.00 1.56 1.98 1.92 1.83 1.69 1.58 1.47 1.41 1.49 1.59 1.55 1.44 1.29 1.25 1.22
1.62 1.73 1.66 1.74 1.77 1.65 1.64 1.68 1.75 1.70 1.44 1.31 1.38 1.27 1.00 0.77 0.84 0.84 0.81 0.86 0.92 1.03 1.05 0.91 0.77 0.68 0.64 0.72 1.04 1.53 1.82 1.86 1.90 1.75 1.60 1.56 1.52 1.52 1.53 1.49 1.47 1.39 1.31
1.85 1.88 1.96 2.03 2.06 2.05 2.02 1.90 1.98 2.08 1.82 1.60 1.71 1.99 1.58 1.18 0.85 0.69 0.79 0.83 0.94 1.17 1.24 1.06 0.87 0.79 0.77 0.82 0.71 0.95 1.31 1.71 1.91 1.92 1.83 1.76 1.70 1.57 1.53 1.45 1.42 1.42 1.43
2.08 2.10 2.16 2.22 2.22 2.07 2.07 2.15 2.25 2.58 2.39 2.04 1.86 2.11 1.90 1.58 1.29 0.88 0.82 0.89 0.97 1.14 1.26 1.28 1.16 1.08 0.98 0.96 0.89 0.70 0.82 1.22 1.60 1.91 1.99 1.91 1.77 1.66 1.64 1.53 1.37 1.30 1.28
2.01 2.12 2.14 2.13 2.10 2.04 2.10 2.16 2.20 2.57 2.76 2.46 2.14 1.81 1.61 1.58 1.63 1.32 0.98 0.94 1.03 1.05 1.17 1.24 1.19 1.25 1.22 1.19 1.13 0.84 0.74 0.95 1.26 1.71 2.04 2.23 2.02 1.78 1.62 1.59 1.56 1.40 1.24
1.87 1.91 1.93 2.01 2.04 2.09 2.14 2.30 2.40 2.63 2.65 2.65 2.47 2.29 2.08 1.79 1.45 1.49 1.42 1.17 1.13 1.06 1.15 1.27 1.31 1.39 1.39 1.39 1.47 1.16 0.88 0.77 0.94 1.36 1.86 2.27 2.29 2.10 1.85 1.70 1.67 1.62 1.38
1.86 1.79 1.76 1.82 1.94 2.11 2.17 2.25 2.38 2.61 2.71 2.79 2.72 2.46 2.37 2.21 1.91 1.78 1.54 1.40 1.39 1.20 1.18 1.21 1.25 1.38 1.50 1.56 1.48 1.55 1.24 0.84 0.74 1.00 1.33 1.78 2.20 2.36 2.28 2.13 2.00 1.96 1.80
1.56 1.58 1.66 1.76 1.89 2.01 2.09 2.21 2.35 2.39 2.50 2.73 2.74 2.58 2.38 2.16 2.13 2.02 1.91 1.60 1.43 1.26 1.25 1.24 1.19 1.24 1.25 1.51 1.61 1.66 1.34 1.00 0.74 0.75 0.89 1.05 1.40 1.87 2.26 2.33 2.31 2.38 2.36
1.46 1.39 1.43 1.53 1.77 1.97 2.05 2.14 2.16 2.13 2.18 2.36 2.37 2.43 2.40 2.12 2.06 1.96 1.95 2.02 1.76 1.56 1.41 1.23 1.11 1.15 1.18 1.36 1.64 1.71 1.28 1.07 0.86 0.74 0.76 0.86 0.93 1.11 1.51 2.05 2.34 2.44 2.59
1.25 1.20 1.22 1.26 1.39 1.63 1.88 2.04 1.98 1.90 1.87 2.02 2.09 2.18 2.29 2.30 2.22 2.12 2.09 2.14 2.07 1.82 1.63 1.43 1.21 1.09 1.15 1.25 1.64 1.58 1.35 1.16 1.04 0.87 0.80 0.85 0.84 0.88 1.01 1.31 1.61 1.74 1.90
1.05 1.05 1.06 1.10 1.23 1.34 1.55 1.78 1.88 1.83 1.80 1.85 1.96 2.09 2.22 2.32 2.37 2.18 2.14 2.11 1.96 1.86 1.71 1.42 1.20 1.12 1.18 1.16 1.50 1.53 1.48 1.45 1.20 1.03 0.95 0.91 0.92 0.86 0.89 1.01 1.10 1.12 1.09
0.81 0.85 1.02 1.08 1.15 1.23 1.40 1.66 1.83 1.84 1.77 1.77 1.77 1.85 2.02 2.11 2.33 2.30 2.22 2.11 1.97 1.80 1.67 1.51 1.31 1.15 1.19 1.25 1.35 1.46 1.48 1.37 1.17 1.12 1.00 0.95 0.92 0.92 0.89 0.96 1.08 1.01 0.90
0.58 0.70 0.84 0.89 0.92 0.97 1.15 1.45 1.64 1.68 1.65 1.56 1.55 1.67 1.90 2.07 2.28 2.38 2.34 2.20 2.10 1.96 1.85 1.77 1.60 1.39 1.27 1.30 1.40 1.52 1.52 1.45 1.36 1.33 1.18 1.06 0.99 0.93 0.93 0.92 0.98 1.06 1.00
0.62 0.73 0.83 0.88 0.90 0.95 0.98 1.08 1.24 1.37 1.35 1.30 1.33 1.40 1.46 1.67 1.95 2.14 2.16 2.17 2.21 2.18 2.13 1.97 1.77 1.63 1.50 1.39 1.45 1.50 1.51 1.57 1.44 1.43 1.40 1.31 1.22 1.13 1.05 1.00 0.98 1.00 1.04
0.58 0.66 0.72 0.79 0.87 0.93 0.93 0.94 0.96 1.03 1.05 1.10 1.16 1.21 1.25 1.30 1.53 1.71 1.81 1.99 2.22 2.24 2.25 2.17 1.95 1.78 1.64 1.52 1.57 1.67 1.75 1.74 1.58 1.37 1.36 1.30 1.34 1.29 1.18 1.02 0.96 0.95 0.99
0.49 0.56 0.63 0.67 0.73 0.81 0.90 0.93 0.80 0.76 0.83 0.94 0.97 0.95 0.97 1.04 1.18 1.28 1.36 1.71 2.05 2.23 2.22 2.18 2.04 1.94 1.68 1.55 1.42 1.43 1.65 1.90 1.87 1.76 1.64 1.39 1.34 1.26 1.19 1.13 1.02 0.96 0.96
0.46 0.52 0.51 0.55 0.67 0.70 0.85 0.83 0.65 0.63 0.67 0.77 0.86 0.86 0.76 0.74 0.79 0.87 0.95 1.13 1.41 1.66 1.94 2.11 2.04 1.85 1.63 1.53 1.48 1.50 1.55 1.68 1.83 1.73 1.76 1.74 1.65 1.58 1.48 1.34 1.31 1.22 1.12
0.44 0.46 0.46 0.47 0.53 0.66 0.71 0.57 0.54 0.56 0.63 0.68 0.74 0.80 0.73 0.63 0.70 0.75 0.84 0.92 0.94 1.02 1.31 1.65 1.77 1.73 1.79 1.67 1.63 1.56 1.53 1.60 1.66 1.62 1.77 1.83 1.79 1.74 1.66 1.63 1.70 1.55 1.38
0.52 0.51 0.52 0.51 0.51 0.57 0.56 0.46 0.49 0.51 0.56 0.61 0.69 0.78 0.83 0.76 0.75 0.85 0.85 0.88 0.84 0.80 1.01 1.02 1.19 1.49 1.67 1.76 1.72 1.80 1.97 1.93 1.79 1.65 1.61 1.67 1.58 1.56 1.58 1.58 1.68 1.60 1.49
0.50 0.52 0.56 0.56 0.52 0.49 0.50 0.42 0.44 0.51 0.56 0.60 0.61 0.66 0.74 0.72 0.86 0.94 0.94 1.07 1.04 0.92 1.04 1.10 1.14 1.18 1.31 1.47 1.60 1.68 1.76 1.83 1.80 1.69 1.50 1.38 1.33 1.33 1.38 1.40 1.41 1.48 1.46
0.29 0.38 0.41 0.44 0.48 0.47 0.58 0.46 0.46 0.50 0.59 0.68 0.70 0.67 0.81 0.80 0.87 0.86 0.84 1.07 1.09 0.97 0.88 0.94 0.95 0.93 0.89 0.99 1.21 1.38 1.59 1.69 1.67 1.58 1.34 1.21 1.19 1.22 1.21 1.08 1.00 1.04 1.05